Weather History for KEED - April, 2013

Change the Weather History Date:

Wednesday, April 17, 2013

  Actual Average Record
Temperature  
Mean Temperature 64 °F -  
Max Temperature 73 °F 85 °F 102 °F (1962)
Min Temperature 55 °F 58 °F 44 °F (1976)
Degree Days  
Heating Degree Days 1    
Growing Degree Days 14 (Base 50)    
Moisture  
Dew Point 20 °F    
Average Humidity 21    
Maximum Humidity 40    
Minimum Humidity 10    
Precipitation  
Precipitation 0.00 in - - ()
Sea Level Pressure  
Sea Level Pressure 29.94 in    
Wind  
Wind Speed 11 mph (North)    
Max Wind Speed 25 mph    
Max Gust Speed 33 mph    
Visibility 10 miles    
Events      
Averages and records for this station are not official NWS values.
T = Trace of Precipitation, MM = Missing Value Source: NWS Daily Summary

Daily Weather History Graph

Daily Weather History Graph

Search for Another Location

Airport or City:

Trip Planner

Search our weather history database for the weather conditions in past years. The results will help you decide how hot, cold, wet, or windy it might be!

Date:

Astronomy

Apr. 17, 2013 Rise Set
Actual Time 6:03 AM PDT 7:12 PM PDT
Civil Twilight 5:37 AM PDT 7:38 PM PDT
Nautical Twilight 5:06 AM PDT 8:09 PM PDT
Astronomical Twilight 4:34 AM PDT 8:42 PM PDT
Moon 11:26 AM PDT (4/17) 12:48 AM PDT (4/17)
Length of Visible Light 14h 01m
Length of Day
13h 08m
Waxing Crescent, 43% of the Moon is Illuminated
Apr 17
Waxing Crescent
Apr 18
First Quarter
Apr 25
Full
May 2
Last Quarter
May 9
New

Hourly Weather History & Observations

Time (PDT) Temp. Dew Point Humidity Pressure Visibility Wind Dir Wind Speed Gust Speed Precip Events Conditions
12:56 AM 60.1 °F 30.0 °F 32% 29.81 in 10.0 mi North 10.4 mph - N/A   Mostly Cloudy
1:56 AM 60.1 °F 30.0 °F 32% 29.82 in 10.0 mi North 8.1 mph - N/A   Mostly Cloudy
2:56 AM 57.9 °F 30.0 °F 35% 29.83 in 10.0 mi NNW 5.8 mph - N/A   Scattered Clouds
3:56 AM 57.0 °F 30.0 °F 36% 29.83 in 10.0 mi North 5.8 mph - N/A   Partly Cloudy
4:56 AM 55.0 °F 30.0 °F 38% 29.85 in 10.0 mi NW 6.9 mph - N/A   Clear
5:56 AM 55.0 °F 30.9 °F 40% 29.87 in 10.0 mi NNW 6.9 mph - N/A   Clear
6:56 AM 55.9 °F 28.9 °F 36% 29.91 in 10.0 mi North 5.8 mph - N/A   Clear
7:56 AM 60.1 °F 28.9 °F 31% 29.93 in 10.0 mi NE 10.4 mph - N/A   Clear
8:56 AM 63.0 °F 25.0 °F 24% 29.95 in 10.0 mi NNE 12.7 mph - N/A   Clear
9:56 AM 66.0 °F 21.0 °F 18% 29.96 in 10.0 mi NE 21.9 mph 27.6 mph N/A   Clear
10:56 AM 68.0 °F 19.0 °F 15% 29.97 in 10.0 mi NE 25.3 mph 32.2 mph N/A   Clear
11:56 AM 70.0 °F 19.0 °F 14% 29.96 in 10.0 mi NNE 23.0 mph 31.1 mph N/A   Clear
12:56 PM 72.0 °F 18.0 °F 13% 29.94 in 10.0 mi North 18.4 mph 28.8 mph N/A   Clear
1:56 PM 73.0 °F 17.1 °F 12% 29.94 in 10.0 mi NNE 20.7 mph 32.2 mph N/A   Clear
2:56 PM 72.0 °F 10.9 °F 10% 29.94 in 10.0 mi NE 13.8 mph 25.3 mph N/A   Clear
3:56 PM 72.0 °F 12.0 °F 10% 29.94 in 10.0 mi NNE 18.4 mph 33.4 mph N/A   Clear
4:56 PM 72.0 °F 12.0 °F 10% 29.95 in 10.0 mi NE 17.3 mph 26.5 mph N/A   Clear
5:56 PM 71.1 °F 10.9 °F 10% 29.95 in 10.0 mi NNE 16.1 mph - N/A   Clear
6:56 PM 69.1 °F 10.0 °F 10% 29.96 in 10.0 mi NNE 13.8 mph - N/A   Clear
7:56 PM 66.0 °F 10.9 °F 12% 29.99 in 10.0 mi North 9.2 mph - N/A   Clear
8:56 PM 62.1 °F 12.9 °F 15% 30.02 in 10.0 mi North 5.8 mph - N/A   Clear
9:56 PM 61.0 °F 12.0 °F 15% 30.04 in 10.0 mi NNW 6.9 mph - N/A   Clear
10:56 PM 61.0 °F 12.9 °F 15% 30.06 in 10.0 mi NNW 8.1 mph - N/A   Clear
11:56 PM 61.0 °F 15.1 °F 17% 30.08 in 10.0 mi North 10.4 mph - N/A   Clear